START_TIME,STEP,MOV.,M15,t_acc.,M20,t_acc.
1979-08-04 23:06:42.530 ,0,0,0.,24.0,0.,24.0
1979-08-04 23:07:06.530 ,0,0,0.,24.0,0.,24.0
1979-08-04 23:08:18.530 ,0,0,0.,24.0,0.,24.0
1979-08-04 23:08:42.530 ,0,0,0.,24.0,0.,24.0
1979-08-04 23:09:06.530 ,3,1,0.,24.0,0.,24.0
1979-08-04 23:09:30.530 ,3,0,0.,24.0,0.,24.0
1979-08-04 23:09:54.530 ,2,1,0.,24.0,0.,24.0
1979-08-04 23:10:18.530 ,2,0,0.,24.0,0.,24.0
1979-08-04 23:10:42.530 ,1,1,0.,24.0,0.,24.0
1979-08-04 23:11:06.530 ,1,0,0.,24.0,0.,24.0
1979-08-04 23:11:30.530 ,0,1,0.,24.0,0.,24.0
1979-08-04 23:11:54.530 ,0,0,0.,24.0,0.,24.0
1979-08-04 23:12:18.530 ,0,1,0.,24.0,0.,24.0
1979-08-04 23:12:42.530 ,0,0,0.,24.0,0.,24.0
1979-08-04 23:13:06.530 ,1,1,0.,24.0,0.,24.0
1979-08-04 23:13:30.530 ,1,0,0.,24.0,0.,24.0
1979-08-04 23:13:54.530 ,2,1,0.,24.0,0.,24.0
1979-08-04 23:14:18.530 ,2,0,0.,24.0,0.,24.0
1979-08-04 23:14:42.530 ,3,1,0.,24.0,0.,24.0
1979-08-04 23:15:06.530 ,3,0,0.,24.0,0.,24.0
1979-08-04 23:15:30.530 ,4,1,0.,24.0,0.,24.0
1979-08-04 23:15:54.530 ,4,0,0.,24.0,0.,24.0
1979-08-04 23:16:18.530 ,5,1,0.,24.0,0.,24.0
1979-08-04 23:16:42.530 ,5,0,0.,24.0,0.,24.0
1979-08-04 23:17:06.530 ,6,1,0.,24.0,0.,24.0
1979-08-04 23:17:30.530 ,6,0,0.,24.0,0.,24.0
1979-08-04 23:17:54.530 ,7,1,0.,24.0,0.,24.0
1979-08-04 23:18:18.530 ,7,0,0.,24.0,0.,24.0
1979-08-04 23:18:42.530 ,7,1,0.,24.0,0.,24.0
1979-08-04 23:19:06.530 ,7,0,0.,24.0,0.,24.0
1979-08-04 23:19:30.530 ,6,1,0.,24.0,0.,24.0
1979-08-04 23:19:54.530 ,6,0,0.,24.0,0.,24.0
1979-08-04 23:20:18.530 ,5,1,0.,24.0,0.,24.0
1979-08-04 23:20:42.530 ,5,0,0.,24.0,0.,24.0
1979-08-04 23:21:06.530 ,4,1,0.,24.0,0.,24.0
1979-08-04 23:21:30.530 ,4,0,0.,24.0,0.,24.0
1979-08-04 23:21:54.530 ,3,1,0.,24.0,0.,24.0
1979-08-04 23:22:18.530 ,3,0,0.,24.0,0.,24.0
1979-08-04 23:22:42.530 ,2,1,0.,24.0,0.,24.0
1979-08-04 23:23:06.530 ,2,0,0.,24.0,0.,24.0
1979-08-04 23:23:30.530 ,1,1,0.,24.0,0.,24.0
1979-08-04 23:23:54.530 ,1,0,0.,24.0,0.,24.0
1979-08-04 23:24:18.530 ,0,1,0.,24.0,0.,24.0
1979-08-04 23:24:42.530 ,0,0,0.,24.0,0.,24.0
1979-08-04 23:25:06.530 ,0,1,0.,24.0,0.,24.0
1979-08-04 23:25:30.530 ,0,0,0.,24.0,0.,24.0
1979-08-04 23:25:54.530 ,1,1,0.,24.0,0.,24.0
1979-08-04 23:26:18.530 ,1,0,0.,24.0,0.,24.0
1979-08-04 23:26:42.530 ,2,1,0.,24.0,0.,24.0
1979-08-04 23:27:06.530 ,2,0,0.,24.0,0.,24.0
1979-08-04 23:27:30.530 ,3,1,0.,24.0,0.,24.0
1979-08-04 23:27:54.530 ,3,0,0.,24.0,0.,24.0
1979-08-04 23:28:18.530 ,4,1,0.,24.0,0.,24.0
1979-08-04 23:28:42.530 ,4,0,0.,24.0,0.,24.0
1979-08-04 23:29:06.530 ,5,1,0.,24.0,0.,24.0
1979-08-04 23:29:30.530 ,5,0,0.,24.0,0.,24.0
1979-08-04 23:29:54.530 ,6,1,0.,24.0,0.,24.0
1979-08-04 23:30:18.530 ,6,0,0.,24.0,0.,24.0
1979-08-04 23:30:42.530 ,7,0,0.,24.0,0.,24.0
1979-08-04 23:31:06.530 ,7,0,0.,24.0,0.,24.0
1979-08-04 23:31:30.530 ,3,1,0.,24.0,0.,24.0
1979-08-04 23:31:54.530 ,0,1,0.,24.0,0.,24.0
1979-08-04 23:32:18.530 ,4,1,0.,24.0,0.,24.0
1979-08-04 23:32:42.530 ,7,1,0.,24.0,0.,24.0
1979-08-04 23:33:06.530 ,3,1,0.,24.0,0.,24.0
1979-08-04 23:33:30.530 ,0,1,0.,24.0,0.,24.0
1979-08-04 23:33:54.530 ,4,1,0.,24.0,0.,24.0
1979-08-04 23:34:18.530 ,7,1,0.,24.0,0.,24.0
1979-08-04 23:34:42.530 ,3,1,0.,24.0,0.,24.0
1979-08-04 23:35:06.530 ,0,1,0.,24.0,0.,24.0
1979-08-04 23:35:30.530 ,4,1,0.,24.0,0.,24.0
1979-08-04 23:35:54.530 ,7,1,0.,24.0,0.,24.0
1979-08-04 23:36:18.530 ,3,1,0.,24.0,0.,24.0
1979-08-04 23:36:42.530 ,0,1,0.,24.0,0.,24.0
1979-08-04 23:37:06.530 ,4,1,0.,24.0,0.,24.0
1979-08-04 23:37:30.530 ,7,1,0.,24.0,0.,24.0
1979-08-04 23:37:54.530 ,3,1,0.,24.0,0.,24.0
1979-08-04 23:38:18.530 ,0,1,0.,24.0,0.,24.0
1979-08-04 23:38:42.530 ,4,1,0.,24.0,0.,24.0
1979-08-04 23:39:06.530 ,7,1,0.,24.0,0.,24.0
1979-08-04 23:39:30.530 ,3,1,0.,24.0,0.,24.0
1979-08-04 23:39:54.530 ,0,1,0.,24.0,0.,24.0
1979-08-04 23:40:18.530 ,4,1,0.,24.0,0.,24.0
1979-08-04 23:40:42.530 ,7,1,0.,24.0,0.,24.0
1979-08-04 23:41:06.530 ,3,1,0.,24.0,0.,24.0
1979-08-04 23:41:30.530 ,0,1,0.,24.0,0.,24.0
1979-08-04 23:41:54.530 ,0,0,0.,24.0,0.,24.0
1979-08-04 23:42:18.530 ,0,0,0.,24.0,0.,24.0
1979-08-04 23:42:42.530 ,5,1,0.,24.0,0.,24.0
1979-08-04 23:43:06.530 ,5,0,0.,24.0,0.,24.0
1979-08-04 23:43:30.530 ,4,1,0.,24.0,0.,24.0
1979-08-04 23:43:54.530 ,4,0,0.,24.0,0.,24.0
1979-08-04 23:44:18.530 ,3,1,0.,24.0,0.,24.0
1979-08-04 23:44:42.530 ,3,0,0.,24.0,0.,24.0
1979-08-04 23:45:06.530 ,2,1,0.,24.0,0.,24.0
1979-08-04 23:45:30.530 ,2,0,0.,24.0,0.,24.0
1979-08-04 23:45:54.530 ,1,1,0.,24.0,0.,24.0
1979-08-04 23:46:18.530 ,1,0,0.,24.0,0.,24.0
1979-08-04 23:46:42.530 ,0,1,0.,24.0,0.,24.0
1979-08-04 23:47:06.530 ,0,0,0.,24.0,0.,24.0
1979-08-04 23:47:30.530 ,0,1,0.,24.0,0.,24.0
1979-08-04 23:47:54.530 ,0,0,0.,24.0,0.,24.0
1979-08-04 23:48:18.530 ,1,1,0.,24.0,0.,24.0
1979-08-04 23:48:42.530 ,1,0,0.,24.0,0.,24.0
1979-08-04 23:49:06.530 ,2,1,0.,24.0,0.,24.0
1979-08-04 23:49:30.530 ,2,0,0.,24.0,0.,24.0
1979-08-04 23:49:54.530 ,3,1,0.,24.0,0.,24.0
1979-08-04 23:50:18.530 ,3,0,0.,24.0,0.,24.0
1979-08-04 23:50:42.530 ,4,1,0.,24.0,0.,24.0
1979-08-04 23:51:06.530 ,4,0,0.,24.0,0.,24.0
1979-08-04 23:51:30.530 ,5,1,0.,24.0,0.,24.0
1979-08-04 23:51:54.530 ,5,0,0.,24.0,0.,24.0
1979-08-04 23:52:18.530 ,6,1,0.,24.0,0.,24.0
1979-08-04 23:52:42.530 ,6,0,0.,24.0,0.,24.0
1979-08-04 23:53:06.530 ,7,1,0.,24.0,0.,24.0
1979-08-04 23:53:30.530 ,7,0,0.,24.0,0.,24.0
1979-08-04 23:53:54.530 ,7,1,0.,24.0,0.,24.0
1979-08-04 23:54:18.530 ,7,0,0.,24.0,0.,24.0
1979-08-04 23:54:42.530 ,6,1,0.,24.0,0.,24.0
1979-08-04 23:55:06.530 ,6,0,0.,24.0,0.,24.0
1979-08-04 23:55:30.530 ,5,1,0.,24.0,0.,24.0
1979-08-04 23:55:54.530 ,5,0,0.,24.0,0.,24.0
1979-08-04 23:56:18.530 ,4,1,0.,24.0,0.,24.0
1979-08-04 23:56:42.530 ,4,0,0.,24.0,0.,24.0
1979-08-04 23:57:06.530 ,3,1,0.,24.0,0.,24.0
1979-08-04 23:57:30.530 ,3,0,0.,24.0,0.,24.0
1979-08-04 23:57:54.530 ,2,1,0.,24.0,0.,24.0
1979-08-04 23:58:18.530 ,2,0,0.,24.0,0.,24.0
1979-08-04 23:58:42.530 ,1,1,0.,24.0,0.,24.0
1979-08-04 23:59:06.530 ,1,0,0.,24.0,0.,24.0
1979-08-04 23:59:30.530 ,0,1,0.,24.0,0.,24.0
1979-08-04 23:59:54.530 ,0,0,0.,24.0,0.,24.0
1979-08-05 00:00:18.530 ,0,1,0.,24.0,0.,24.0
